This is the latest recevied weather packets stored in our database for station/object EA3IK-1. If no packets are shown the sender has not sent any weather packets the latest 10 day(s).
| Time | Temp. | Humidity | Pressure | Rain* | Wind** | Luminosity | Snow |
|---|---|---|---|---|---|---|---|
| 1777554579 | 23.33° C | 64% | 1015.7 hPa | 0 mm | - | - | - |
| 1777553678 | 22.78° C | 63% | 1015.8 hPa | 0 mm | - | - | - |
| 1777552777 | 22.78° C | 62% | 1015.8 hPa | 0 mm | - | - | - |
| 1777551876 | 22.78° C | 61% | 1015.8 hPa | 0 mm | - | - | - |
| 1777550975 | 22.78° C | 61% | 1015.9 hPa | 0 mm | - | - | - |
| 1777550074 | 22.22° C | 63% | 1016 hPa | 0 mm | - | - | - |
| 1777549173 | 22.78° C | 63% | 1016.1 hPa | 0 mm | - | - | - |
| 1777548272 | 22.22° C | 65% | 1016.2 hPa | 0 mm | - | - | - |
| 1777547372 | 22.22° C | 65% | 1016.2 hPa | 0 mm | - | - | - |
| 1777546471 | 21.67° C | 63% | 1016.4 hPa | 0 mm | - | - | - |
| 1777545570 | 21.67° C | 61% | 1016.4 hPa | 0 mm | - | - | - |
| 1777544669 | 21.11° C | 63% | 1016.4 hPa | 0 mm | - | - | - |
| 1777543768 | 21.67° C | 63% | 1016.4 hPa | 0 mm | - | - | - |
| 1777542867 | 21.67° C | 63% | 1016.3 hPa | 0 mm | - | - | - |
| 1777541967 | 21.11° C | 65% | 1016.2 hPa | 0 mm | - | - | - |
| 1777541066 | 20.56° C | 66% | 1016.1 hPa | 0 mm | - | - | - |
| 1777540165 | 20.56° C | 65% | 1016 hPa | 0 mm | - | - | - |
| 1777539264 | 20.56° C | 64% | 1015.8 hPa | 0 mm | - | - | - |
| 1777538363 | 20.56° C | 65% | 1015.7 hPa | 0 mm | - | - | - |
| 1777537462 | 20° C | 66% | 1015.7 hPa | 0 mm | - | - | - |
| 1777536561 | 18.33° C | 67% | 1015.7 hPa | 0 mm | - | - | - |
| 1777535660 | 17.78° C | 67% | 1015.5 hPa | 0 mm | - | - | - |
| 1777534760 | 17.22° C | 66% | 1015.4 hPa | 0 mm | - | - | - |
| 1777533859 | 16.67° C | 64% | 1015.4 hPa | 0 mm | - | - | - |
| 1777532958 | 16.11° C | 61% | 1015.5 hPa | 0 mm | - | - | - |
* Rain latest hour (hover to see other rain measurements)
** Current wind speed in m/s (hover to see current wind gust speed)